This is the latest recevied weather packets stored in our database for station/object K5GHS-1. If no packets are shown the sender has not sent any weather packets the latest 10 day(s).
| Time | Temp. | Humidity | Pressure | Rain* | Wind** | Luminosity | Snow |
|---|---|---|---|---|---|---|---|
| 1777160956 | 28.33° C | 67% | 1003.5 hPa | 0 mm | - | 2 W/m² | - |
| 1777160653 | 28.33° C | 67% | 1003.4 hPa | 0 mm | - | 2 W/m² | - |
| 1777160348 | 28.33° C | 67% | 1003.3 hPa | 0 mm | - | 3 W/m² | - |
| 1777160044 | 28.33° C | 67% | 1003.2 hPa | 0 mm | - | 5 W/m² | - |
| 1777159741 | 28.89° C | 67% | 1003 hPa | 0 mm | - | 6 W/m² | - |
| 1777159436 | 28.89° C | 68% | 1002.7 hPa | 0 mm | - | 9 W/m² | - |
| 1777159133 | 28.89° C | 67% | 1002.4 hPa | 0 mm | - | 13 W/m² | - |
| 1777158830 | 28.89° C | 67% | 1002.5 hPa | 0 mm | - | 22 W/m² | - |
| 1777158528 | 28.89° C | 67% | 1002.8 hPa | 0 mm | - | 35 W/m² | - |
| 1777158224 | 28.89° C | 66% | 1002.4 hPa | 0 mm | - | 55 W/m² | - |
| 1777157920 | 29.44° C | 66% | 1002.4 hPa | 0 mm | - | 71 W/m² | - |
| 1777157616 | 29.44° C | 66% | 1002.6 hPa | 0 mm | - | 82 W/m² | - |
| 1777157313 | 29.44° C | 65% | 1002.6 hPa | 0 mm | - | 101 W/m² | - |
| 1777157012 | 30° C | 64% | 1002.1 hPa | 0 mm | - | 144 W/m² | - |
| 1777156707 | 30° C | 65% | 1002.4 hPa | 0 mm | - | 150 W/m² | - |
| 1777156404 | 30° C | 65% | 1002.6 hPa | 0 mm | - | 69 W/m² | - |
| 1777156100 | 30° C | 65% | 1002.8 hPa | 0 mm | - | 324 W/m² | - |
| 1777155797 | 30° C | 66% | 1002.8 hPa | 0 mm | - | 147 W/m² | - |
| 1777155492 | 30.56° C | 64% | 1003 hPa | 0 mm | - | 335 W/m² | - |
| 1777155190 | 30° C | 65% | 1002.7 hPa | 0 mm | - | 346 W/m² | - |
| 1777154887 | 30° C | 64% | 1003.4 hPa | 0 mm | - | 440 W/m² | - |
| 1777154583 | 30.56° C | 64% | 1003.1 hPa | 0 mm | - | 415 W/m² | - |
| 1777154280 | 30.56° C | 65% | 1003.1 hPa | 0 mm | - | 475 W/m² | - |
| 1777153975 | 30° C | 67% | 1003.2 hPa | 0 mm | - | 500 W/m² | - |
| 1777153671 | 29.44° C | 68% | 1003.1 hPa | 0 mm | - | 181 W/m² | - |
* Rain latest hour (hover to see other rain measurements)
** Current wind speed in m/s (hover to see current wind gust speed)